Location: Unspecified
(0.0000°N, 0.0000°E)
Time: 17:03:58
(UTC+00:00)

HO-68 - Pass Details

Date: 13 June 2023
Orbit: 1193 x 1204 km, 100.3° (Epoch: 28 September)

Event Time Altitude Azimuth Distance (km) Brightness Sun altitude
Rises 03:57:02 0° 351° (N) 4,086 ? -28.0°
Reaches altitude 10° 04:00:05 10° 340° (NNW) 3,123 ? -27.3°
Enters shadow 04:04:13 25° 306° (NW) 2,209 ? -26.4°
